Location: Unspecified
(0.0000°N, 0.0000°E)
Time: 10:56:42
(UTC+00:00)

Tiros 1 despin weight - All Passes

Search period start: 25 April 2015 00:00
Search period end: 05 May 2015 00:00
Orbit: 598 x 648 km, 48.2° (Epoch: 24 April)

Date Brightness Start Highest point End Pass type
(mag) Time Alt. Az. Time Alt. Az. Time Alt. Az.
25 Apr - 05:50:34 10° SSW 05:54:57 45° SE 05:59:25 10° NE daylight
25 Apr - 07:34:10 10° W 07:36:38 14° NW 07:38:53 10° NNW daylight
25 Apr - 17:59:37 10° NW 18:04:10 79° NE 18:08:40 10° SE daylight
26 Apr - 04:31:10 10° SE 04:31:20 10° SE 04:31:49 10° SE visible
26 Apr - 06:08:31 10° SW 06:13:02 61° NW 06:17:37 10° NNE daylight
26 Apr - 16:37:46 10° N 16:40:38 17° NE 16:43:39 10° E daylight
26 Apr - 18:18:05 10° WNW 18:22:15 35° SW 18:26:20 10° SSE visible
27 Apr - 04:45:44 10° S 04:49:36 28° SE 04:53:34 10° ENE visible
27 Apr - 06:27:35 10° W 06:31:12 22° NW 06:34:43 10° N daylight
27 Apr - 16:54:27 10° NNW 16:58:50 46° NE 17:03:11 10° SE daylight
27 Apr - 18:38:17 10° WSW 18:40:28 13° SW 18:42:24 10° SSW visible
28 Apr - 05:03:08 10° SW 05:07:41 80° SE 05:12:19 10° NE visible
28 Apr - 15:34:38 10° NE 15:35:09 10° NE 15:36:00 10° ENE daylight
28 Apr - 17:12:23 10° NW 17:16:54 59° SW 17:21:21 10° SSE daylight
29 Apr - 03:41:17 10° S 03:44:10 17° SE 03:47:15 10° E visible
29 Apr - 05:21:36 10° WSW 05:25:47 35° NW 05:29:58 10° NNE visible
29 Apr - 15:49:31 10° N 15:53:26 28° NE 15:57:23 10° ESE daylight
29 Apr - 17:31:30 10° W 17:35:02 21° SW 17:38:23 10° S daylight
30 Apr - 03:57:59 10° SSW 04:02:19 46° SE 04:06:45 10° NE visible
30 Apr - 05:41:45 10° WNW 05:44:00 13° NW 05:46:03 10° NNW daylight
30 Apr - 16:06:55 10° NW 16:11:32 81° NE 16:16:04 10° SE daylight
01 May - 02:38:19 10° SE 02:38:41 10° SE 02:39:22 10° ESE visible
01 May - 04:15:55 10° SW 04:20:23 59° NW 04:24:54 10° NNE visible
01 May - 14:44:56 10° N 14:47:58 18° NE 14:51:08 10° E daylight
01 May - 16:25:23 10° WNW 16:29:35 34° SW 16:33:42 10° SSE daylight
02 May - 02:53:04 10° S 02:56:55 28° SE 03:00:51 10° ENE visible
02 May - 04:35:01 10° W 04:38:31 21° NW 04:41:54 10° N visible
02 May - 15:01:40 10° NNW 15:06:07 48° NE 15:10:33 10° SE daylight
02 May - 16:45:36 10° WSW 16:47:46 13° SW 16:49:41 10° SSW daylight
03 May - 03:10:28 10° SW 03:14:58 82° SE 03:19:32 10° NE visible
03 May - 13:41:23 10° NE 13:42:25 11° NE 13:43:44 10° ENE daylight
03 May - 15:19:36 10° NW 15:24:09 58° SW 15:28:38 10° SSE daylight
04 May - 01:48:32 10° S 01:51:26 17° SE 01:54:30 10° E night (unlit)
04 May - 03:28:55 10° WSW 03:33:01 33° NW 03:37:08 10° NNE visible
04 May - 13:56:38 10° N 14:00:39 29° NE 14:04:41 10° ESE daylight
04 May - 15:38:43 10° W 15:42:15 21° SW 15:45:38 10° S daylight
